Location: ????????
(55.4000°N, 39.1167°E)
Time: 03:29:27
(UTC+00:00)

Okean 3 Rocket - Pass Details

Date: 19 May 2025
Orbit: 610 x 638 km, 82.5° (Epoch: 15 June)

Event Time Altitude Azimuth Distance (km) Brightness Sun altitude
Rises 20:12:26 0° 347° (NNW) 2,900 9.1 -13.3°
Reaches altitude 10° 20:14:39 10° 346° (NNW) 1,993 7.7 -13.4°
Maximum altitude 20:19:04 80° 260° (W) 638 3.6 -13.5°
Enters shadow 20:21:57 21° 176° (S) 1,388 4.7 -13.6°
